Weather History for Richlands, VA

Change the Weather History Date:

Thursday, December 20, 2012

  Actual Average (KBLF) Record (KBLF)
Temperature  
Mean Temperature 42 °F 36 °F  
Max Temperature 48 °F 44 °F 65 °F (1967)
Min Temperature 33 °F 28 °F -4 °F (2004)
Degree Days  
Heating Degree Days 24 29  
Month to date heating degree days 532  
Since 1 July heating degree days 1435  
Cooling Degree Days 0 0  
Month to date cooling degree days 0  
Year to date cooling degree days 853  
Moisture  
Dew Point 39 °F    
Average Humidity 84    
Maximum Humidity 100    
Minimum Humidity 62    
Precipitation  
Precipitation 0.00 in 0.09 in 0.54 in (1973)
Month to date precipitation 1.92  
Year to date precipitation 38.64  
Snow  
Snow 0.00 in - - ()
Month to date snowfall  
Since 1 July snowfall  
Snow Depth -    
Sea Level Pressure  
Sea Level Pressure 29.75 in    
Wind  
Wind Speed 7 mph (SSE)    
Max Wind Speed 20 mph    
Max Gust Speed 31 mph    
Visibility 9 miles    
Events      
T = Trace of Precipitation, MM = Missing Value Source: NWS Daily Summary

Daily Weather History Graph

Daily Weather History Graph

Search for Another Location

Airport:

Trip Planner

Search our weather history database for the weather conditions in past years. The results will help you decide how hot, cold, wet, or windy it might be!

Date:

Astronomy

Dec. 20, 2012 Rise Set
Actual Time 7:36 AM EST 5:13 PM EST
Civil Twilight 7:07 AM EST 5:42 PM EST
Nautical Twilight 6:34 AM EST 6:15 PM EST
Astronomical Twilight 6:03 AM EST 6:46 PM EST
Moon 12:24 PM EST (12/20) 12:29 AM EST (12/20)
Length of Visible Light 10h 35m
Length of Day
9h 36m
First Quarter, 55% of the Moon is Illuminated
Dec 20
First Quarter
Dec 28
Full
Jan 4
Last Quarter
Jan 11
New
Jan 18
First Quarter

Hourly Weather History & Observations

Time (EST) Temp. Windchill Dew Point Humidity Pressure Visibility Wind Dir Wind Speed Gust Speed Precip Events Conditions
12:15 AM 48.2 °F - 35.6 °F 62% 30.05 in 10.0 mi SSE 4.6 mph - N/A   Clear
12:35 AM 48.2 °F - 35.6 °F 62% 30.05 in 10.0 mi SSE 3.5 mph - N/A   Clear
12:55 AM 46.4 °F 43.5 °F 35.6 °F 66% 30.04 in 10.0 mi SE 5.8 mph - N/A   Clear
1:15 AM 46.4 °F 44.3 °F 35.6 °F 66% 30.03 in 10.0 mi SE 4.6 mph - N/A   Clear
1:35 AM 48.2 °F - 35.6 °F 62% 30.02 in 10.0 mi SE 3.5 mph - N/A   Clear
2:15 AM 44.6 °F 43.1 °F 35.6 °F 71% 30.01 in 10.0 mi ESE 3.5 mph - N/A   Clear
2:35 AM 46.4 °F 44.3 °F 35.6 °F 66% 30.01 in 10.0 mi ESE 4.6 mph - N/A   Clear
2:55 AM 44.6 °F 43.1 °F 35.6 °F 71% 30.01 in 10.0 mi Variable 3.5 mph - N/A   Clear
3:15 AM 46.4 °F 43.5 °F 35.6 °F 66% 30.01 in 10.0 mi SE 5.8 mph - N/A   Clear
3:35 AM 46.4 °F 42.9 °F 35.6 °F 66% 30.00 in 10.0 mi Variable 6.9 mph - N/A   Clear
3:55 AM 46.4 °F 42.9 °F 35.6 °F 66% 29.99 in 10.0 mi NNE 6.9 mph - N/A   Clear
4:15 AM 44.6 °F 43.1 °F 35.6 °F 71% 29.99 in 10.0 mi Variable 3.5 mph - N/A   Clear
4:35 AM 46.4 °F 45.2 °F 35.6 °F 66% 29.99 in 10.0 mi Variable 3.5 mph - N/A   Clear
4:55 AM 44.6 °F 40.7 °F 35.6 °F 71% 29.97 in 10.0 mi Variable 6.9 mph - N/A   Clear
5:15 AM 44.6 °F 40.2 °F 35.6 °F 71% 29.96 in 10.0 mi SE 8.1 mph - N/A   Clear
5:35 AM 44.6 °F 40.7 °F 35.6 °F 71% 29.95 in 10.0 mi Variable 6.9 mph - N/A   Clear
5:55 AM 42.8 °F 38.0 °F 35.6 °F 76% 29.94 in 10.0 mi ESE 8.1 mph - N/A   Clear
6:15 AM 42.8 °F 38.6 °F 35.6 °F 76% 29.94 in 10.0 mi ESE 6.9 mph - N/A   Clear
6:35 AM 42.8 °F 38.6 °F 33.8 °F 70% 29.92 in 10.0 mi Variable 6.9 mph - N/A   Clear
6:55 AM 42.8 °F 37.5 °F 33.8 °F 70% 29.87 in 10.0 mi ESE 9.2 mph - N/A   Clear
7:15 AM 42.8 °F 38.0 °F 33.8 °F 70% 29.87 in 10.0 mi East 8.1 mph - N/A   Clear
7:35 AM 42.8 °F 37.5 °F 33.8 °F 70% 29.84 in 10.0 mi ESE 9.2 mph - N/A   Clear
7:55 AM 44.6 °F 39.2 °F 33.8 °F 66% 29.83 in 10.0 mi ESE 10.4 mph - N/A   Clear
8:15 AM 44.6 °F 38.1 °F 33.8 °F 66% 29.83 in 10.0 mi ESE 13.8 mph 26.5 mph N/A   Clear
8:35 AM 44.6 °F 39.7 °F 35.6 °F 71% 29.85 in 10.0 mi ESE 9.2 mph - N/A   Clear
8:55 AM 44.6 °F 40.2 °F 35.6 °F 71% 29.85 in 10.0 mi SE 8.1 mph 24.2 mph N/A   Clear
9:15 AM 44.6 °F 41.4 °F 35.6 °F 71% 29.86 in 10.0 mi Variable 5.8 mph - N/A   Clear
9:35 AM 44.6 °F 38.8 °F 35.6 °F 71% 29.85 in 10.0 mi ESE 11.5 mph 23.0 mph N/A   Clear
9:55 AM 44.6 °F 38.8 °F 37.4 °F 76% 29.86 in 10.0 mi ESE 11.5 mph - N/A   Partly Cloudy
10:15 AM 42.8 °F 37.0 °F 37.4 °F 81% 29.88 in 10.0 mi SE 10.4 mph - N/A   Partly Cloudy
10:35 AM 42.8 °F 38.6 °F 42.8 °F 100% 29.86 in 7.0 mi Variable 6.9 mph - N/A   Clear
10:55 AM 42.8 °F 39.3 °F 42.8 °F 100% 29.86 in 8.0 mi Variable 5.8 mph - N/A   Clear
11:15 AM 42.8 °F 37.5 °F 42.8 °F 100% 29.83 in 7.0 mi SE 9.2 mph - N/A   Unknown
11:35 AM 42.8 °F 40.1 °F 42.8 °F 100% 29.82 in 10.0 mi Variable 4.6 mph - N/A   Unknown
11:55 AM 42.8 °F 38.0 °F 42.8 °F 100% 29.79 in 10.0 mi East 8.1 mph - N/A   Partly Cloudy
12:15 PM 44.6 °F 41.4 °F 42.8 °F 93% 29.76 in 10.0 mi Variable 5.8 mph - N/A   Mostly Cloudy
12:35 PM 44.6 °F 40.2 °F 42.8 °F 93% 29.73 in 10.0 mi East 8.1 mph - N/A   Mostly Cloudy
12:55 PM 44.6 °F 43.1 °F 41.0 °F 87% 29.72 in 10.0 mi Variable 3.5 mph - N/A   Mostly Cloudy
1:15 PM 44.6 °F 42.2 °F 41.0 °F 87% 29.70 in 10.0 mi Variable 4.6 mph - N/A   Overcast
1:35 PM 44.6 °F 39.2 °F 39.2 °F 81% 29.65 in 10.0 mi ESE 10.4 mph 21.9 mph N/A   Scattered Clouds
1:55 PM 44.6 °F 40.2 °F 37.4 °F 76% 29.64 in 10.0 mi SE 8.1 mph - N/A   Partly Cloudy
2:15 PM 44.6 °F 38.8 °F 37.4 °F 76% 29.65 in 5.0 mi SSE 11.5 mph 27.6 mph N/A   Partly Cloudy
2:35 PM 42.8 °F 38.6 °F 41.0 °F 93% 29.62 in 6.0 mi Variable 6.9 mph - N/A   Clear
2:55 PM 42.8 °F 38.0 °F 41.0 °F 93% 29.60 in 5.0 mi SE 8.1 mph 20.7 mph N/A   Clear
3:15 PM 42.8 °F 37.5 °F 42.8 °F 100% 29.57 in 8.0 mi SE 9.2 mph - N/A   Unknown
3:35 PM 42.8 °F 37.5 °F 42.8 °F 100% 29.57 in 10.0 mi SE 9.2 mph - N/A   Unknown
3:55 PM 42.8 °F 37.5 °F 42.8 °F 100% 29.55 in 10.0 mi SE 9.2 mph - N/A   Unknown
4:15 PM 44.6 °F 40.2 °F 44.6 °F 100% 29.56 in 6.0 mi SSE 8.1 mph 31.1 mph N/A   Unknown
4:35 PM 44.6 °F 39.7 °F 44.6 °F 100% 29.53 in 6.0 mi SE 9.2 mph 21.9 mph N/A   Unknown
4:55 PM 44.6 °F 39.2 °F 44.6 °F 100% 29.53 in 6.0 mi SSE 10.4 mph 21.9 mph N/A   Partly Cloudy
5:15 PM 44.6 °F 39.2 °F 44.6 °F 100% 29.54 in 6.0 mi SSE 10.4 mph - N/A   Partly Cloudy
5:35 PM 44.6 °F 38.8 °F 44.6 °F 100% 29.54 in 9.0 mi South 11.5 mph - N/A   Scattered Clouds
5:55 PM 46.4 °F 40.7 °F 46.4 °F 100% 29.54 in 6.0 mi SSE 12.7 mph - N/A   Scattered Clouds
6:15 PM 46.4 °F 39.0 °F 46.4 °F 100% 29.53 in 8.0 mi South 19.6 mph - N/A   Mostly Cloudy
6:35 PM 46.4 °F 40.7 °F 46.4 °F 100% 29.54 in 10.0 mi South 12.7 mph - N/A   Mostly Cloudy
6:55 PM 44.6 °F 41.4 °F 44.6 °F 100% 29.53 in 10.0 mi Variable 5.8 mph - N/A   Mostly Cloudy
7:15 PM 46.4 °F 40.7 °F 46.4 °F 100% 29.50 in 10.0 mi SSE 12.7 mph 23.0 mph N/A   Mostly Cloudy
7:35 PM 46.4 °F 40.4 °F 46.4 °F 100% 29.51 in 8.0 mi WSW 13.8 mph 25.3 mph N/A   Mostly Cloudy
7:55 PM 44.6 °F 37.4 °F 44.6 °F 100% 29.51 in 8.0 mi SW 16.1 mph 24.2 mph N/A   Mostly Cloudy
8:15 PM 44.6 °F 38.8 °F 42.8 °F 93% 29.51 in 9.0 mi SW 11.5 mph - N/A   Mostly Cloudy
8:35 PM 44.6 °F 38.8 °F 44.6 °F 100% 29.50 in 10.0 mi WSW 11.5 mph 23.0 mph N/A   Mostly Cloudy
8:55 PM 44.6 °F 39.7 °F 42.8 °F 93% 29.51 in 10.0 mi SW 9.2 mph - N/A   Mostly Cloudy
9:15 PM 42.8 °F 36.2 °F 41.0 °F 93% 29.51 in 10.0 mi WSW 12.7 mph - N/A   Mostly Cloudy
9:35 PM 41.0 °F 35.2 °F 41.0 °F 100% 29.53 in 4.0 mi SW 9.2 mph - N/A   Mostly Cloudy
9:55 PM 39.2 °F 32.0 °F 39.2 °F 100% 29.54 in 10.0 mi WSW 11.5 mph 24.2 mph N/A   Mostly Cloudy
10:15 PM 37.4 °F 29.8 °F 35.6 °F 93% 29.56 in 10.0 mi WSW 11.5 mph 25.3 mph N/A   Overcast
10:35 PM 35.6 °F 29.2 °F 30.2 °F 81% 29.56 in 10.0 mi WSW 8.1 mph 25.3 mph N/A   Overcast
10:55 PM 35.6 °F 26.2 °F 30.2 °F 81% 29.57 in 10.0 mi WSW 15.0 mph 28.8 mph N/A   Overcast
11:55 PM 33.8 °F 26.4 °F 28.4 °F 81% 29.57 in 10.0 mi SW 9.2 mph - N/A   Overcast